[[{"header":{"parameterUnit":"m.s-1","parameterCategory":1,"la1":30.2991,"la2":30.254,"lo1":-89.0895,"lo2":-89.0444,"dy":0.0017,"dx":0.0017,"nx":28,"ny":28,"refTime":"2025-12-18T09:00:00:Z","depth":0,"parameterNumber":2,"parameterNumberName":"U-component_of_WINDS"},"data":[0,0,0,0,0,0,0,0,0,0,0,0,0,0,0,0,0,0,0,0,0,0,0,0,0,0,0,0,0,0,0,0,0,0,0,0,0,0,0,0,0,0,0,0,0,0,0,0,0,0,0,0,0,0,0,0,0,0,-2.1847,-2.1848,0,-2.1874,-2.1875,-2.1875,-2.1784,-2.1781,-2.1778,-2.1775,-2.1806,-2.1809,-2.1813,0,0,0,0,0,0,0,0,0,0,0,0,0,-2.1719,-2.1721,-2.1847,-2.1848,-2.1848,-2.1874,-2.1875,-2.1875,-2.1784,-2.1781,-2.1777,-2.1774,-2.1805,-2.1809,-2.1813,0,0,0,0,0,0,0,0,0,0,0,0,0,-2.1763,-2.1722,-2.1847,-2.1806,-2.1802,-2.1874,-2.1875,-2.1875,-2.1785,-2.1781,-2.1776,-2.1773,-2.1803,-2.1808,-2.1813,-2.1928,0,0,-2.1829,-2.1831,0,0,0,0,0,0,0,0,-2.1761,-2.1768,-2.1811,-2.1809,-2.1805,-2.1821,-2.184,-2.1893,-2.1786,-2.1792,-2.1775,-2.1771,-2.1815,-2.1818,-2.1833,-2.1929,-2.193,-2.1829,-2.1832,-2.1835,-2.1836,0,0,0,0,0,0,0,-2.1758,-2.1766,-2.1858,-2.1812,-2.1808,-2.1786,-2.1788,-2.185,-2.1826,-2.1791,-2.1784,-2.1788,-2.1812,-2.1828,-2.1833,-2.1931,-2.1829,-2.1834,-2.1837,-2.1839,-2.2123,-2.2127,0,0,0,0,0,0,-2.176,-2.1764,-2.1857,-2.1859,-2.1772,-2.1792,-2.1794,-2.182,-2.1825,-2.1822,-2.1792,-2.1784,-2.1821,-2.1827,-2.1834,-2.1968,-2.1835,-2.1839,-2.1842,-2.2118,-2.2124,-2.2128,0,0,0,0,0,0,-2.1757,-2.1769,-2.1856,-2.181,-2.1819,-2.1799,-2.1829,-2.1823,-2.1839,-2.1826,-2.1821,-2.1813,-2.1818,-2.1826,-2.1905,-2.1968,-2.1842,-2.1846,-2.2113,-2.212,-2.2126,-2.2239,0,0,0,0,0,0,-2.1754,-2.1769,-2.1812,-2.1811,-2.1822,-2.1927,-2.1833,-2.1827,-2.1848,-2.1838,-2.1844,-2.1841,-2.1816,-2.1898,-2.191,-2.1973,-2.185,-2.2107,-2.2116,-2.2124,-2.2229,-2.2249,-2.2265,0,0,0,0,0,-2.175,-2.1843,-2.1814,-2.1826,-2.1875,-2.1931,-2.1937,-2.1905,-2.1853,-2.1897,-2.1888,-2.1841,-2.1959,-2.1907,-2.1919,-2.1985,-2.2103,-2.2113,-2.2123,-2.2221,-2.2245,-2.2265,0,0,0,0,0,0,-2.1852,-2.1842,-2.181,-2.1906,-2.192,-2.1915,-2.1969,-2.193,-2.196,-2.195,-2.1909,-2.1911,-2.1997,-2.1998,-2.1941,-2.2096,-2.2022,-2.2035,-2.2092,-2.2114,-2.2132,-2.2131,-2.1854,0,0,0,0,0,-2.1886,-2.1931,-2.192,-2.2005,-2.2014,-2.199,-2.2013,-2.1987,-2.2,-2.2006,-2.2003,-2.2018,-2.2058,-2.2086,-2.2122,-2.2228,-2.2229,-2.2279,-2.2297,-2.2312,-2.2325,-2.2381,-2.2404,-2.2162,-2.2161,-2.2161,0,0,-2.1956,-2.1956,-2.1987,-2.2026,-2.2033,-2.2082,-2.1996,-2.2051,-2.2087,-2.2014,-2.2089,-2.2087,-2.2101,-2.2194,-2.2235,-2.2198,-2.2391,-2.2325,-2.2337,-2.2341,-2.2394,-2.2417,-2.2437,-2.2168,-2.2167,-2.2166,0,0,-2.2109,-2.2113,-2.2185,-2.2194,-2.2206,-2.219,-2.2207,-2.2208,-2.2204,-2.2277,-2.2224,-2.2266,-2.2336,-2.2349,-2.2364,-2.2521,-2.2479,-2.2533,-2.2627,-2.2683,-2.2702,-2.2719,-2.2776,-2.2797,-2.2545,-2.2546,-2.2546,0,-2.2195,-2.2265,-2.2227,-2.2286,-2.2305,-2.2239,-2.2313,-2.2323,-2.2347,-2.2362,-2.232,-2.2406,-2.2411,-2.2506,-2.2544,-2.2558,-2.2578,-2.2534,-2.2702,-2.2719,-2.2734,-2.2788,-2.281,-2.2552,-2.2552,-2.2551,-2.255,0,-2.2371,-2.2421,-2.2478,-2.2502,-2.2526,-2.2592,-2.2564,-2.2594,-2.2565,-2.2554,-2.2629,-2.2632,-2.2668,-2.2688,-2.2661,-2.278,-2.2757,-2.2709,-2.2635,-2.2764,-2.2815,-2.2835,-2.2562,-2.2559,-2.2558,-2.2556,0,0,-2.2592,-2.2592,-2.2614,-2.2624,-2.2632,-2.267,-2.2733,-2.2767,-2.2794,-2.2812,-2.2865,-2.2925,-2.288,-2.2898,-2.2871,-2.292,-2.3045,-2.2866,-2.2866,-2.2901,-2.3178,-2.3215,-2.324,-2.3016,-2.302,-2.3023,-2.3177,0,-2.2744,-2.285,-2.2817,-2.2925,-2.2971,-2.2909,-2.2964,-2.2975,-2.2965,-2.3003,-2.2992,-2.3036,-2.2973,-2.2984,-2.3029,-2.302,-2.3101,-2.3008,-2.3066,-2.3069,-2.3067,-2.3266,-2.3306,-2.3451,-2.3196,-2.3199,-2.3202,0,-2.2936,-2.2961,-2.3074,-2.3074,-2.3091,-2.3141,-2.317,-2.3206,-2.3218,-2.3207,-2.3226,-2.3189,-2.3251,-2.3175,-2.326,-2.3198,-2.3219,-2.3218,-2.3223,-2.3229,-2.3145,-2.3279,-2.3496,-2.3519,-2.3232,-2.323,-2.3228,0,-2.3088,-2.3149,-2.3225,-2.3235,-2.3237,-2.3273,-2.3276,-2.3283,-2.3305,-2.333,-2.3345,-2.3377,-2.3395,-2.3421,-2.3393,-2.334,-2.3483,-2.3404,-2.3478,-2.3479,-2.3513,-2.3511,-2.3738,-2.3523,-2.3523,-2.3522,-2.3522,0,-2.3262,-2.3334,-2.3293,-2.334,-2.3418,-2.3379,-2.3458,-2.3453,-2.346,-2.3505,-2.3453,-2.3497,-2.3457,-2.3497,-2.3476,-2.355,-2.3558,-2.3552,-2.3546,-2.3559,-2.356,-2.3574,-2.3564,-2.3528,-2.3527,-2.3526,-2.3525,0,-2.3446,-2.3421,-2.35,-2.3494,-2.3494,-2.3553,-2.3548,-2.3592,-2.3577,-2.3635,-2.3647,-2.3625,-2.3669,-2.3644,-2.3689,-2.3675,-2.3772,-2.3751,-2.3769,-2.3764,-2.384,-2.3834,-2.4085,-2.4117,-2.388,-2.3882,-2.3884,0,-2.356,-2.3614,-2.3614,-2.364,-2.3646,-2.3688,-2.3711,-2.3673,-2.3699,-2.3716,-2.3757,-2.3797,-2.3827,-2.3901,-2.389,-2.3924,-2.3905,-2.3991,-2.391,-2.3921,-2.3909,-2.3907,-2.3912,-2.4008,-2.4011,-2.4013,-2.4015,0,-2.3766,-2.3751,-2.3785,-2.3815,-2.3843,-2.3865,-2.3883,-2.3907,-2.387,-2.3901,-2.3946,-2.3969,-2.4015,-2.4056,-2.4085,-2.4087,-2.4046,-2.404,-2.4059,-2.4073,-2.4082,-2.408,-2.3815,-2.4035,-2.4033,-2.4032,-2.403,-2.403,-2.392,-2.3965,-2.3972,-2.4011,-2.402,-2.4038,-2.4078,-2.4069,-2.4105,-2.4139,-2.4114,-2.4167,-2.4177,-2.4211,-2.422,-2.4261,-2.4226,-2.4254,-2.4261,-2.4269,-2.428,-2.4073,-2.4266,-2.4265,-2.4265,-2.4264,-2.4264,0,-2.4124,-2.4125,-2.4162,-2.4188,-2.4219,-2.4175,-2.4192,-2.4222,-2.4269,-2.428,-2.4311,-2.4362,-2.4401,-2.4392,-2.4426,-2.4461,-2.4443,-2.4472,-2.447,-2.4472,-2.4308,-2.4289,-2.4486,-2.4486,-2.4486,-2.4486,-2.4486,-2.4486,-2.4235,-2.4309,-2.4294,-2.4372,-2.4372,-2.4423,-2.4437,-2.4453,-2.4462,-2.4522,-2.4553,-2.4546,-2.455,-2.4585,-2.4618,-2.4615,-2.4631,-2.4667,-2.4657,-2.4505,-2.4483,-2.4462,-2.4444,-2.4671,-2.4671,-2.4817,-2.4819,-2.482]},{"header":{"parameterUnit":"m.s-1","parameterCategory":1,"la1":30.2991,"la2":30.254,"lo1":-89.0895,"lo2":-89.0444,"dy":0.0017,"dx":0.0017,"nx":28,"ny":28,"refTime":"2025-12-18T09:00:00:Z","depth":0,"parameterNumber":3,"parameterNumberName":"V-component_of_WINDS"},"data":[0,0,0,0,0,0,0,0,0,0,0,0,0,0,0,0,0,0,0,0,0,0,0,0,0,0,0,0,0,0,0,0,0,0,0,0,0,0,0,0,0,0,0,0,0,0,0,0,0,0,0,0,0,0,0,0,0,0,-3.1208,-3.1209,0,-3.1296,-3.1297,-3.1298,-3.1264,-3.1262,-3.126,-3.1258,-3.1344,-3.1348,-3.1352,0,0,0,0,0,0,0,0,0,0,0,0,0,-3.1009,-3.1013,-3.1208,-3.1209,-3.1211,-3.1296,-3.1297,-3.1298,-3.1264,-3.1262,-3.1259,-3.1257,-3.1343,-3.1348,-3.1353,0,0,0,0,0,0,0,0,0,0,0,0,0,-3.1096,-3.1014,-3.1208,-3.1204,-3.1204,-3.1295,-3.1297,-3.1298,-3.1265,-3.1261,-3.1258,-3.1256,-3.1341,-3.1347,-3.1353,-3.1453,0,0,-3.1372,-3.1375,0,0,0,0,0,0,0,0,-3.1091,-3.1103,-3.1204,-3.1204,-3.1205,-3.1266,-3.1258,-3.135,-3.1265,-3.1242,-3.1258,-3.1254,-3.132,-3.1328,-3.1351,-3.1457,-3.146,-3.1373,-3.1377,-3.138,-3.1381,0,0,0,0,0,0,0,-3.1085,-3.1099,-3.1243,-3.1205,-3.1206,-3.1197,-3.1206,-3.1275,-3.1297,-3.1243,-3.1241,-3.1252,-3.132,-3.1345,-3.1353,-3.1462,-3.1373,-3.1378,-3.1382,-3.1385,-3.1652,-3.1655,0,0,0,0,0,0,-3.1079,-3.1095,-3.124,-3.1245,-3.114,-3.1203,-3.1213,-3.1249,-3.1296,-3.13,-3.1255,-3.125,-3.1336,-3.1345,-3.1356,-3.1475,-3.1379,-3.1385,-3.1389,-3.1649,-3.1653,-3.1657,0,0,0,0,0,0,-3.1075,-3.1093,-3.1236,-3.117,-3.1187,-3.1209,-3.1251,-3.1253,-3.1278,-3.1304,-3.1308,-3.1276,-3.1334,-3.1347,-3.1429,-3.1477,-3.1388,-3.1394,-3.1645,-3.165,-3.1655,-3.1714,0,0,0,0,0,0,-3.107,-3.1091,-3.113,-3.1171,-3.1191,-3.1309,-3.1254,-3.1257,-3.1289,-3.1284,-3.1326,-3.133,-3.1332,-3.142,-3.1435,-3.1484,-3.1399,-3.1641,-3.1647,-3.1653,-3.1707,-3.172,-3.1731,0,0,0,0,0,-3.1063,-3.1143,-3.1132,-3.115,-3.124,-3.1312,-3.1324,-3.1326,-3.1293,-3.1331,-3.1349,-3.1328,-3.1469,-3.1428,-3.1445,-3.1497,-3.1638,-3.1645,-3.1653,-3.1702,-3.1718,-3.1731,0,0,0,0,0,0,-3.1106,-3.1148,-3.1137,-3.1232,-3.1269,-3.1306,-3.1355,-3.1342,-3.1388,-3.1382,-3.1382,-3.1391,-3.1476,-3.1495,-3.1448,-3.1595,-3.1548,-3.156,-3.158,-3.1595,-3.1606,-3.16,-3.1404,0,0,0,0,0,-3.1127,-3.1183,-3.1216,-3.1297,-3.1317,-3.1333,-3.1364,-3.1363,-3.1401,-3.1416,-3.1439,-3.1475,-3.1528,-3.1562,-3.1612,-3.171,-3.1718,-3.1754,-3.1765,-3.1775,-3.1785,-3.1837,-3.1853,-3.1681,-3.1681,-3.1681,0,0,-3.117,-3.12,-3.1236,-3.1307,-3.1335,-3.1393,-3.1346,-3.1409,-3.1451,-3.1425,-3.1504,-3.1522,-3.1563,-3.1653,-3.1694,-3.1671,-3.1834,-3.1785,-3.1792,-3.1797,-3.1847,-3.1863,-3.1877,-3.1686,-3.1686,-3.1685,0,0,-3.1279,-3.1307,-3.1378,-3.1408,-3.1451,-3.1462,-3.1479,-3.1518,-3.1529,-3.1609,-3.1591,-3.164,-3.1731,-3.176,-3.1787,-3.1907,-3.189,-3.1923,-3.1984,-3.2035,-3.2049,-3.2061,-3.2103,-3.2118,-3.1932,-3.1933,-3.1933,0,-3.1327,-3.1414,-3.1416,-3.148,-3.1512,-3.1492,-3.1563,-3.1591,-3.1648,-3.167,-3.1644,-3.1757,-3.1783,-3.188,-3.1909,-3.1932,-3.195,-3.1918,-3.2047,-3.2059,-3.207,-3.211,-3.2126,-3.1936,-3.1936,-3.1936,-3.1935,0,-3.1471,-3.1531,-3.1583,-3.164,-3.1677,-3.1745,-3.1756,-3.1793,-3.1789,-3.1801,-3.1882,-3.1912,-3.1968,-3.1991,-3.1986,-3.2087,-3.2072,-3.2046,-3.1999,-3.209,-3.2128,-3.2144,-3.1942,-3.194,-3.1939,-3.1938,0,0,-3.1609,-3.1667,-3.1685,-3.1711,-3.1758,-3.1804,-3.187,-3.1925,-3.1957,-3.1997,-3.2052,-3.2129,-3.2106,-3.2137,-3.2135,-3.2181,-3.2273,-3.215,-3.215,-3.2171,-3.2385,-3.2404,-3.2422,-3.2262,-3.2265,-3.2267,-3.2382,0,-3.1721,-3.1838,-3.1842,-3.1949,-3.2004,-3.1986,-3.2043,-3.2077,-3.2091,-3.2139,-3.2153,-3.2208,-3.2174,-3.2192,-3.2236,-3.2253,-3.2316,-3.2244,-3.2312,-3.2315,-3.2303,-3.2442,-3.2462,-3.2568,-3.2397,-3.2399,-3.2401,0,-3.1868,-3.1914,-3.2026,-3.2065,-3.2088,-3.214,-3.2191,-3.2237,-3.2276,-3.2282,-3.2316,-3.2308,-3.2375,-3.2326,-3.2417,-3.2368,-3.2396,-3.2408,-3.2412,-3.2418,-3.2363,-3.2452,-3.2603,-3.2619,-3.2424,-3.2422,-3.2421,0,-3.1957,-3.2047,-3.2126,-3.2148,-3.2196,-3.2232,-3.2253,-3.2289,-3.2322,-3.2366,-3.2387,-3.2437,-3.2465,-3.2504,-3.251,-3.2473,-3.2601,-3.2552,-3.2608,-3.2608,-3.2635,-3.2633,-3.2793,-3.2653,-3.2653,-3.2653,-3.2653,0,-3.2082,-3.2151,-3.2167,-3.2215,-3.2293,-3.2295,-3.2371,-3.2389,-3.2421,-3.2472,-3.2458,-3.2506,-3.2511,-3.256,-3.2564,-3.2639,-3.2651,-3.2658,-3.2658,-3.2659,-3.2658,-3.2677,-3.267,-3.2657,-3.2656,-3.2655,-3.2655,0,-3.2195,-3.2208,-3.2293,-3.2331,-3.2342,-3.2397,-3.2429,-3.2475,-3.2487,-3.2552,-3.2567,-3.2586,-3.2643,-3.2652,-3.2719,-3.2722,-3.2811,-3.2804,-3.2799,-3.2798,-3.2852,-3.2847,-3.3029,-3.3053,-3.2899,-3.29,-3.2901,0,-3.2274,-3.2327,-3.2371,-3.2405,-3.2428,-3.2483,-3.2516,-3.2521,-3.2556,-3.2604,-3.2644,-3.2699,-3.2744,-3.2836,-3.2855,-3.2906,-3.29,-3.296,-3.2907,-3.2906,-3.29,-3.2897,-3.2902,-3.297,-3.2972,-3.2973,-3.2974,0,-3.2412,-3.2416,-3.2466,-3.2518,-3.2559,-3.26,-3.2639,-3.2667,-3.2676,-3.2717,-3.2775,-3.281,-3.2879,-3.2934,-3.2985,-3.3005,-3.2991,-3.2991,-3.3006,-3.3008,-3.3003,-3.3006,-3.2826,-3.2987,-3.2985,-3.2984,-3.2984,-3.2983,-3.2511,-3.2557,-3.2595,-3.2651,-3.2681,-3.2717,-3.2763,-3.2781,-3.283,-3.2887,-3.2886,-3.295,-3.2986,-3.3053,-3.3077,-3.3126,-3.3107,-3.3129,-3.3135,-3.314,-3.3146,-3.2995,-3.3135,-3.3135,-3.3135,-3.3135,-3.3134,0,-3.2648,-3.2672,-3.2723,-3.2779,-3.2822,-3.2806,-3.2848,-3.2886,-3.2943,-3.2978,-3.3023,-3.309,-3.3143,-3.3167,-3.3219,-3.3254,-3.3249,-3.3268,-3.3265,-3.327,-3.316,-3.3142,-3.3271,-3.3271,-3.3271,-3.3271,-3.3271,-3.3271,-3.2725,-3.2803,-3.2811,-3.2903,-3.2926,-3.299,-3.3015,-3.3048,-3.3077,-3.3153,-3.3198,-3.3213,-3.3243,-3.3297,-3.3346,-3.3351,-3.3371,-3.3392,-3.3395,-3.3292,-3.3278,-3.3265,-3.3247,-3.3397,-3.3397,-3.35,-3.3501,-3.3502]}]]